Location: Newark
(25.6108°S, 54.5803°W)
Time: 13:39:41
(UTC+00:00)

A-11 Canister half - Visible Passes

Search period start: 30 October 2020 00:00
Search period end: 09 November 2020 00:00
Orbit: 1526 x 1683 km, 47.3° (Epoch: 30 October)

Date Brightness Start Highest point End Pass type
(mag) Time Alt. Az. Time Alt. Az. Time Alt. Az.
30 Oct 9.5 04:45:21 53° SSE 04:45:21 53° SSE 04:52:40 10° SE visible
30 Oct 10.4 06:43:37 17° WSW 06:49:13 28° SSW 06:57:35 10° SE visible
31 Oct 9.8 04:24:29 46° SE 04:24:29 46° SE 04:31:00 10° SE visible
31 Oct 10.3 06:22:45 21° WSW 06:27:25 29° SSW 06:35:52 10° SE visible
31 Oct 10.9 08:28:59 10° SW 08:36:04 21° S 08:43:14 10° SE visible
01 Nov 9.9 04:03:35 40° SE 04:03:35 40° SE 04:09:18 10° SE visible
01 Nov 10.3 06:01:50 24° WSW 06:05:37 30° SSW 06:14:10 10° SE visible
01 Nov 10.9 08:07:10 10° SW 08:14:13 21° S 08:21:20 10° SE visible
02 Nov 10.1 03:42:37 35° SE 03:42:37 35° SE 03:47:37 10° SE visible
02 Nov 10.2 05:40:53 27° SW 05:43:50 31° SSW 05:52:28 10° SE visible
02 Nov 10.9 07:45:22 10° SW 07:52:22 20° S 07:59:27 10° SE visible
03 Nov 10.3 03:21:36 30° SE 03:21:36 30° SE 03:25:56 10° SE visible
03 Nov 10.1 05:19:50 29° SW 05:22:04 32° SSW 05:30:46 10° SE visible
03 Nov 11.0 07:23:33 10° SW 07:30:31 20° S 07:37:34 10° SE visible
04 Nov 10.4 03:00:30 27° SE 03:00:30 27° SE 03:04:14 10° SE visible
04 Nov 10.1 04:58:44 32° SW 05:00:18 33° SSW 05:09:06 10° SE visible
04 Nov 11.0 07:01:44 10° SW 07:08:40 20° S 07:15:42 10° SE visible
05 Nov 10.5 02:39:19 24° SE 02:39:19 24° SE 02:42:32 10° SE visible
05 Nov 10.1 04:37:33 34° SW 04:38:31 34° SSW 04:47:24 10° SE visible
05 Nov 10.9 06:39:54 10° SW 06:46:48 20° S 06:53:50 10° SE visible
06 Nov 10.5 02:18:01 22° SE 02:18:01 22° SE 02:20:50 10° SE visible
06 Nov 10.0 04:16:15 36° SW 04:16:46 36° SSW 04:25:44 10° SE visible
06 Nov 10.9 06:18:03 10° SW 06:24:58 20° S 06:31:59 10° SE visible
07 Nov 10.6 01:56:36 20° SE 01:56:36 20° SE 01:59:07 10° SE visible
07 Nov 10.0 03:54:48 37° SSW 03:55:01 37° SSW 04:04:03 10° SE visible
07 Nov 10.9 05:56:13 10° SW 06:03:07 20° S 06:10:09 10° SE visible
07 Nov 10.9 08:03:21 10° SW 08:11:46 29° SSE 08:20:14 10° E visible
08 Nov 10.5 01:34:58 20° SE 01:34:58 20° SE 01:37:25 10° SE visible
08 Nov 9.9 03:33:09 39° SSW 03:33:17 39° SSW 03:42:23 10° SE visible
08 Nov 10.9 05:34:22 10° SW 05:41:16 21° S 05:48:19 10° SE visible
08 Nov 10.9 07:41:41 10° SW 07:49:58 28° SSE 07:58:19 10° ESE visible
